Вернуться в каталог

STARLINK-34995

АктивенСвязьSSO
NORAD 65285·PAYLOAD·🇺🇸 United States

Запущен Aug 22, 2025 с Vandenberg Space Force Base

Loading…

Ближайшие Пролёты (ближайшие 24 часа)

TLE

СвежийSource: CelesTrak SupGP

Эпоха: Sep 14, 2026, 20:57 UTC

1 65285C 25184N   26257.87340278 -.00012656  00000+0 -39288-3 0  2578
2 65285  97.2838 305.9578 0001071  96.0360 294.9714 15.33446011    10

Отслеживайте STARLINK-34995 в реальном времени с AllMySat

Download on the App Store